Time,TemperatureF,DewpointF,PressureIn,WindDirection,WindDirectionDegrees,WindSpeedMPH,WindSpeedGustMPH,Humidity,HourlyPrecipIn,Conditions,Clouds,dailyrainin,SoftwareType,DateUTC
2013-01-26 00:00:00,11.5,-10.3,29.62,SW,231,0.0,0.0,36,0.00,,OVC100,0.00,VWS V14.01,2013-01-26 05:00:00,
2013-01-26 00:01:00,11.5,-10.3,29.62,SW,231,0.0,0.0,36,0.00,,OVC085,0.00,VWS V14.01,2013-01-26 05:01:00,
2013-01-26 00:03:00,11.5,-10.3,29.65,SW,231,0.0,0.0,36,0.00,,OVC085,0.00,VWS V14.01,2013-01-26 05:03:00,
2013-01-26 00:05:00,11.5,-10.3,29.65,SW,231,0.0,0.0,36,0.00,,OVC085,0.00,VWS V14.01,2013-01-26 05:05:00,
2013-01-26 00:10:00,11.5,-10.3,29.65,SW,231,0.0,0.0,36,0.00,,OVC085,0.00,VWS V14.01,2013-01-26 05:10:00,
2013-01-26 00:15:00,11.5,-10.3,29.65,SW,231,0.0,0.0,36,0.00,,OVC085,0.00,VWS V14.01,2013-01-26 05:15:00,
2013-01-26 00:20:00,11.5,-10.3,29.62,SW,231,0.0,0.0,36,0.00,,OVC085,0.00,VWS V14.01,2013-01-26 05:20:00,
2013-01-26 00:25:00,11.5,-10.3,29.62,SW,231,0.0,0.0,36,0.00,,OVC085,0.00,VWS V14.01,2013-01-26 05:25:00,
2013-01-26 00:30:00,11.5,-10.3,29.62,SW,231,0.0,0.0,36,0.00,,OVC085,0.00,VWS V14.01,2013-01-26 05:30:00,
2013-01-26 00:36:00,11.5,-10.3,29.65,SW,231,0.0,0.0,36,0.00,,OVC085,0.00,VWS V14.01,2013-01-26 05:36:00,
2013-01-26 00:41:00,11.5,-10.3,29.65,SW,231,0.0,0.0,36,0.00,,OVC085,0.00,VWS V14.01,2013-01-26 05:41:00,
2013-01-26 00:46:00,11.5,-10.3,29.65,SW,231,0.0,0.0,36,0.00,,OVC085,0.00,VWS V14.01,2013-01-26 05:46:00,
2013-01-26 00:51:00,11.7,-10.1,29.62,North,8,0.0,0.0,36,0.00,,OVC085,0.00,VWS V14.01,2013-01-26 05:51:00,
2013-01-26 00:56:00,11.7,-10.1,29.62,North,8,0.0,0.0,36,0.00,,OVC085,0.00,VWS V14.01,2013-01-26 05:56:00,
2013-01-26 01:01:00,11.5,-10.3,29.62,North,8,0.0,0.0,36,0.00,,OVC090,0.00,VWS V14.01,2013-01-26 06:01:00,
2013-01-26 01:06:00,11.5,-10.3,29.62,North,8,0.0,0.0,36,0.00,,OVC090,0.00,VWS V14.01,2013-01-26 06:06:00,
2013-01-26 01:11:00,11.5,-10.3,29.62,North,0,0.0,0.0,36,0.00,,OVC090,0.00,VWS V14.01,2013-01-26 06:11:00,
2013-01-26 01:16:00,11.3,-10.4,29.62,North,0,0.0,0.0,36,0.00,,OVC090,0.00,VWS V14.01,2013-01-26 06:16:00,
2013-01-26 01:21:00,11.3,-10.4,29.62,North,0,0.0,0.0,36,0.00,,OVC090,0.00,VWS V14.01,2013-01-26 06:21:00,
2013-01-26 01:26:00,11.3,-10.4,29.62,North,0,0.0,0.0,36,0.00,,OVC090,0.00,VWS V14.01,2013-01-26 06:26:00,
2013-01-26 01:31:00,11.3,-10.4,29.62,North,0,0.0,0.0,36,0.00,,OVC090,0.00,VWS V14.01,2013-01-26 06:31:00,
2013-01-26 01:37:00,11.3,-10.4,29.62,North,0,0.0,0.0,36,0.00,,OVC090,0.00,VWS V14.01,2013-01-26 06:37:00,
2013-01-26 01:42:00,11.3,-10.4,29.62,North,353,0.0,0.0,36,0.00,,OVC090,0.00,VWS V14.01,2013-01-26 06:42:00,
2013-01-26 01:47:00,11.3,-10.4,29.62,NE,41,0.0,0.0,36,0.00,,OVC090,0.00,VWS V14.01,2013-01-26 06:47:00,
2013-01-26 01:52:00,11.3,-10.4,29.62,NE,41,0.0,0.0,36,0.00,,OVC090,0.00,VWS V14.01,2013-01-26 06:52:00,
2013-01-26 01:57:00,11.3,-10.4,29.62,NE,41,0.0,0.0,36,0.00,,OVC090,0.00,VWS V14.01,2013-01-26 06:57:00,
2013-01-26 02:02:00,11.3,-10.4,29.62,NE,37,0.0,0.0,36,0.00,,OVC075,0.00,VWS V14.01,2013-01-26 07:02:00,
2013-01-26 02:07:00,11.1,-10.6,29.62,NE,37,0.0,0.0,36,0.00,,OVC075,0.00,VWS V14.01,2013-01-26 07:07:00,
2013-01-26 02:12:00,11.1,-10.6,29.62,NE,37,0.0,0.0,36,0.00,,OVC075,0.00,VWS V14.01,2013-01-26 07:12:00,
2013-01-26 02:17:00,10.9,-10.8,29.62,NE,37,0.0,0.0,36,0.00,,OVC075,0.00,VWS V14.01,2013-01-26 07:17:00,
2013-01-26 02:22:00,10.9,-10.8,29.62,NE,37,0.0,0.0,36,0.00,,OVC075,0.00,VWS V14.01,2013-01-26 07:22:00,
2013-01-26 02:27:00,10.9,-10.8,29.62,NE,37,0.0,0.0,36,0.00,,OVC075,0.00,VWS V14.01,2013-01-26 07:27:00,
2013-01-26 02:32:00,10.8,-10.9,29.59,NE,37,0.0,0.0,36,0.00,,OVC075,0.00,VWS V14.01,2013-01-26 07:32:00,
2013-01-26 02:37:00,10.8,-10.9,29.59,NE,37,0.0,0.0,36,0.00,,OVC075,0.00,VWS V14.01,2013-01-26 07:37:00,
2013-01-26 02:43:00,10.8,-10.9,29.59,NE,37,0.0,0.0,36,0.00,,OVC075,0.00,VWS V14.01,2013-01-26 07:43:00,
2013-01-26 02:48:00,10.8,-10.9,29.59,NE,37,0.0,0.0,36,0.00,,OVC075,0.00,VWS V14.01,2013-01-26 07:48:00,
2013-01-26 02:53:00,10.8,-10.9,29.59,NE,37,0.0,0.0,36,0.00,,OVC075,0.00,VWS V14.01,2013-01-26 07:53:00,
2013-01-26 02:58:00,10.8,-10.9,29.59,NE,37,0.0,0.0,36,0.00,,OVC075,0.00,VWS V14.01,2013-01-26 07:58:00,
2013-01-26 03:03:00,10.9,-10.8,29.59,NE,37,0.0,0.0,36,0.00,,OVC070,0.00,VWS V14.01,2013-01-26 08:03:00,
2013-01-26 03:08:00,10.9,-10.8,29.59,NE,37,0.0,0.0,36,0.00,,OVC070,0.00,VWS V14.01,2013-01-26 08:08:00,
2013-01-26 03:13:00,10.9,-10.8,29.59,NE,37,0.0,0.0,36,0.00,,OVC070,0.00,VWS V14.01,2013-01-26 08:13:00,
2013-01-26 03:18:00,10.9,-10.8,29.59,NE,41,7.2,7.2,36,0.00,,OVC070,0.00,VWS V14.01,2013-01-26 08:18:00,
2013-01-26 03:23:00,10.8,-10.9,29.59,NNE,22,0.0,0.0,36,0.00,,OVC070,0.00,VWS V14.01,2013-01-26 08:23:00,
2013-01-26 03:28:00,10.8,-10.9,29.59,NNE,22,0.0,0.0,36,0.00,,OVC070,0.00,VWS V14.01,2013-01-26 08:28:00,
2013-01-26 03:33:00,10.8,-10.9,29.59,NE,41,0.0,0.0,36,0.00,,OVC070,0.00,VWS V14.01,2013-01-26 08:33:00,
2013-01-26 03:38:00,10.8,-10.9,29.59,North,357,0.0,0.0,36,0.00,,OVC070,0.00,VWS V14.01,2013-01-26 08:38:00,
2013-01-26 03:43:00,10.6,-11.1,29.59,NNE,22,0.0,0.0,36,0.00,,OVC070,0.00,VWS V14.01,2013-01-26 08:43:00,
2013-01-26 03:48:00,10.6,-11.1,29.59,North,8,0.0,0.0,36,0.00,,OVC070,0.00,VWS V14.01,2013-01-26 08:48:00,
2013-01-26 03:54:00,10.4,-11.3,29.59,NE,36,0.0,0.0,36,0.00,,OVC070,0.00,VWS V14.01,2013-01-26 08:54:00,
2013-01-26 03:59:00,10.4,-11.3,29.59,NNE,20,0.0,0.0,36,0.00,,OVC070,0.00,VWS V14.01,2013-01-26 08:59:00,
2013-01-26 04:04:00,10.2,-11.4,29.59,NE,35,0.0,3.6,36,0.00,,OVC060,0.00,VWS V14.01,2013-01-26 09:04:00,
2013-01-26 04:09:00,10.2,-11.4,29.59,NE,34,0.0,0.0,36,0.00,,OVC060,0.00,VWS V14.01,2013-01-26 09:09:00,
2013-01-26 04:14:00,10.0,-11.6,29.59,NE,34,0.0,0.0,36,0.00,,OVC060,0.00,VWS V14.01,2013-01-26 09:14:00,
2013-01-26 04:19:00,10.0,-11.6,29.56,NE,34,0.0,0.0,36,0.00,,OVC060,0.00,VWS V14.01,2013-01-26 09:19:00,
2013-01-26 04:24:00,9.9,-11.7,29.56,NE,34,0.0,0.0,36,0.00,,OVC060,0.00,VWS V14.01,2013-01-26 09:24:00,
2013-01-26 04:29:00,9.7,-11.9,29.56,NE,34,0.0,0.0,36,0.00,,OVC060,0.00,VWS V14.01,2013-01-26 09:29:00,
2013-01-26 04:34:00,9.7,-11.9,29.59,NE,34,0.0,0.0,36,0.00,,OVC060,0.00,VWS V14.01,2013-01-26 09:34:00,
2013-01-26 04:39:00,9.5,-12.1,29.59,NE,34,0.0,0.0,36,0.00,,OVC060,0.00,VWS V14.01,2013-01-26 09:39:00,
2013-01-26 04:44:00,9.3,-12.2,29.59,North,2,0.0,0.0,36,0.00,,OVC060,0.00,VWS V14.01,2013-01-26 09:44:00,
2013-01-26 04:49:00,9.3,-12.2,29.59,North,2,0.0,0.0,36,0.00,,OVC060,0.00,VWS V14.01,2013-01-26 09:49:00,
2013-01-26 04:54:00,9.1,-12.4,29.59,North,7,0.0,0.0,36,0.00,,OVC060,0.00,VWS V14.01,2013-01-26 09:54:00,
2013-01-26 04:59:00,9.1,-12.4,29.59,North,350,0.0,0.0,36,0.00,,OVC060,0.00,VWS V14.01,2013-01-26 09:59:00,
2013-01-26 05:04:00,9.1,-12.4,29.59,NW,319,0.0,0.0,36,0.00,,OVC070,0.00,VWS V14.01,2013-01-26 10:04:00,
2013-01-26 05:09:00,9.0,-12.6,29.59,NNW,329,0.0,0.0,36,0.00,,OVC070,0.00,VWS V14.01,2013-01-26 10:09:00,
2013-01-26 05:14:00,9.0,-12.6,29.59,North,7,0.0,0.0,36,0.00,,OVC070,0.00,VWS V14.01,2013-01-26 10:14:00,
2013-01-26 05:19:00,8.8,-12.7,29.59,North,6,0.0,0.0,36,0.00,,OVC070,0.00,VWS V14.01,2013-01-26 10:19:00,
2013-01-26 05:24:00,8.8,-12.7,29.59,NNE,12,0.0,0.0,36,0.00,,OVC070,0.00,VWS V14.01,2013-01-26 10:24:00,
2013-01-26 05:29:00,8.8,-12.7,29.59,NNE,12,0.0,0.0,36,0.00,,OVC070,0.00,VWS V14.01,2013-01-26 10:29:00,
2013-01-26 05:35:00,8.6,-12.9,29.59,NNE,12,0.0,0.0,36,0.00,,OVC070,0.00,VWS V14.01,2013-01-26 10:35:00,
2013-01-26 05:40:00,8.6,-12.9,29.59,North,11,0.0,0.0,36,0.00,,OVC070,0.00,VWS V14.01,2013-01-26 10:40:00,
2013-01-26 05:45:00,8.4,-13.0,29.59,West,263,0.0,0.0,36,0.00,,OVC070,0.00,VWS V14.01,2013-01-26 10:45:00,
2013-01-26 05:50:00,8.4,-13.0,29.59,North,0,0.0,0.0,36,0.00,,OVC070,0.00,VWS V14.01,2013-01-26 10:50:00,
2013-01-26 05:55:00,8.4,-13.0,29.59,North,0,0.0,0.0,36,0.00,,OVC070,0.00,VWS V14.01,2013-01-26 10:55:00,
2013-01-26 06:00:00,8.2,-13.2,29.59,North,0,0.0,0.0,36,0.00,,OVC070,0.00,VWS V14.01,2013-01-26 11:00:00,
2013-01-26 06:05:00,8.2,-13.2,29.59,North,4,0.0,0.0,36,0.00,,FEW039,0.00,VWS V14.01,2013-01-26 11:05:00,
2013-01-26 06:10:00,8.1,-13.4,29.59,North,4,0.0,0.0,36,0.00,,FEW039,0.00,VWS V14.01,2013-01-26 11:10:00,
2013-01-26 06:15:00,8.1,-13.4,29.59,North,4,0.0,0.0,36,0.00,,FEW039,0.00,VWS V14.01,2013-01-26 11:15:00,
2013-01-26 06:20:00,7.9,-13.5,29.59,North,4,0.0,0.0,36,0.00,,FEW039,0.00,VWS V14.01,2013-01-26 11:20:00,
2013-01-26 06:25:00,7.7,-13.7,29.59,North,4,0.0,0.0,36,0.00,,FEW039,0.00,VWS V14.01,2013-01-26 11:25:00,
2013-01-26 06:31:00,7.7,-13.7,29.59,North,4,0.0,0.0,36,0.00,,FEW039,0.00,VWS V14.01,2013-01-26 11:31:00,
2013-01-26 06:36:00,7.5,-13.8,29.59,North,4,0.0,0.0,36,0.00,,FEW039,0.00,VWS V14.01,2013-01-26 11:36:00,
2013-01-26 06:41:00,7.5,-13.8,29.59,North,4,0.0,0.0,36,0.00,,FEW039,0.00,VWS V14.01,2013-01-26 11:41:00,
2013-01-26 06:46:00,7.3,-14.0,29.59,North,4,0.0,0.0,36,0.00,,FEW039,0.00,VWS V14.01,2013-01-26 11:46:00,
2013-01-26 06:51:00,7.2,-14.2,29.59,North,4,0.0,0.0,36,0.00,,FEW039,0.00,VWS V14.01,2013-01-26 11:51:00,
2013-01-26 06:56:00,7.2,-14.2,29.59,North,4,0.0,0.0,36,0.00,,FEW039,0.00,VWS V14.01,2013-01-26 11:56:00,
2013-01-26 07:01:00,7.0,-14.3,29.59,North,4,0.0,0.0,36,0.00,,CLR,0.00,VWS V14.01,2013-01-26 12:01:00,
2013-01-26 07:06:00,7.0,-14.3,29.59,North,4,0.0,0.0,36,0.00,,CLR,0.00,VWS V14.01,2013-01-26 12:06:00,
2013-01-26 07:11:00,7.0,-14.3,29.59,North,4,0.0,0.0,36,0.00,,CLR,0.00,VWS V14.01,2013-01-26 12:11:00,
2013-01-26 07:16:00,7.0,-14.3,29.59,North,4,0.0,0.0,36,0.00,,CLR,0.00,VWS V14.01,2013-01-26 12:16:00,
2013-01-26 07:21:00,7.0,-14.3,29.59,North,4,0.0,0.0,36,0.00,,CLR,0.00,VWS V14.01,2013-01-26 12:21:00,
2013-01-26 07:27:00,7.2,-14.2,29.59,North,4,0.0,0.0,36,0.00,,CLR,0.00,VWS V14.01,2013-01-26 12:27:00,
2013-01-26 07:32:00,7.3,-14.0,29.62,North,4,0.0,0.0,36,0.00,,CLR,0.00,VWS V14.01,2013-01-26 12:32:00,
2013-01-26 07:37:00,7.5,-13.8,29.62,North,4,0.0,0.0,36,0.00,,CLR,0.00,VWS V14.01,2013-01-26 12:37:00,
2013-01-26 07:42:00,7.7,-13.7,29.62,North,4,0.0,0.0,36,0.00,,CLR,0.00,VWS V14.01,2013-01-26 12:42:00,
2013-01-26 07:47:00,7.9,-13.5,29.62,North,6,0.0,0.0,36,0.00,,CLR,0.00,VWS V14.01,2013-01-26 12:47:00,
2013-01-26 07:52:00,7.9,-13.5,29.62,North,6,0.0,0.0,36,0.00,,CLR,0.00,VWS V14.01,2013-01-26 12:52:00,
2013-01-26 07:57:00,7.9,-13.5,29.62,North,357,0.0,0.0,36,0.00,,CLR,0.00,VWS V14.01,2013-01-26 12:57:00,
2013-01-26 08:03:00,8.1,-13.4,29.62,North,357,0.0,0.0,36,0.00,,CLR,0.00,VWS V14.01,2013-01-26 13:03:00,
2013-01-26 08:08:00,8.1,-13.4,29.62,North,357,0.0,0.0,36,0.00,,CLR,0.00,VWS V14.01,2013-01-26 13:08:00,
2013-01-26 08:13:00,8.4,-13.0,29.62,North,353,0.0,0.0,36,0.00,,CLR,0.00,VWS V14.01,2013-01-26 13:13:00,
2013-01-26 08:18:00,8.6,-12.9,29.59,NW,317,0.0,0.0,36,0.00,,CLR,0.00,VWS V14.01,2013-01-26 13:18:00,
2013-01-26 08:23:00,8.8,-12.7,29.59,NE,37,0.0,0.0,36,0.00,,CLR,0.00,VWS V14.01,2013-01-26 13:23:00,
2013-01-26 08:28:00,8.8,-12.7,29.59,NNE,12,0.0,0.0,36,0.00,,CLR,0.00,VWS V14.01,2013-01-26 13:28:00,
2013-01-26 08:33:00,9.1,-12.4,29.62,NNW,334,0.0,2.2,36,0.00,,CLR,0.00,VWS V14.01,2013-01-26 13:33:00,
2013-01-26 08:38:00,9.3,-12.2,29.62,North,353,0.0,0.0,36,0.00,,CLR,0.00,VWS V14.01,2013-01-26 13:38:00,
2013-01-26 08:43:00,9.5,-12.1,29.62,NNW,345,0.0,0.0,36,0.00,,CLR,0.00,VWS V14.01,2013-01-26 13:43:00,
2013-01-26 08:48:00,9.5,-12.1,29.62,NNE,29,0.0,0.0,36,0.00,,CLR,0.00,VWS V14.01,2013-01-26 13:48:00,
2013-01-26 08:53:00,9.7,-11.9,29.62,NNE,27,0.0,0.0,36,0.00,,CLR,0.00,VWS V14.01,2013-01-26 13:53:00,
2013-01-26 08:59:00,10.0,-11.6,29.62,NNW,332,0.0,3.1,36,0.00,,CLR,0.00,VWS V14.01,2013-01-26 13:59:00,
2013-01-26 09:04:00,10.0,-11.6,29.62,NE,42,0.0,0.0,36,0.00,,SCT055,0.00,VWS V14.01,2013-01-26 14:04:00,
2013-01-26 09:09:00,10.0,-11.6,29.62,NNW,339,0.0,2.7,36,0.00,,SCT055,0.00,VWS V14.01,2013-01-26 14:09:00,
2013-01-26 09:14:00,10.0,-11.6,29.62,NE,35,0.0,0.0,36,0.00,,SCT055,0.00,VWS V14.01,2013-01-26 14:14:00,
2013-01-26 09:19:00,10.0,-11.6,29.62,NE,37,0.0,2.7,36,0.00,,SCT055,0.00,VWS V14.01,2013-01-26 14:19:00,
2013-01-26 09:24:00,10.0,-11.6,29.62,North,353,0.0,0.0,36,0.00,,SCT055,0.00,VWS V14.01,2013-01-26 14:24:00,
2013-01-26 09:29:00,10.2,-11.4,29.62,NNE,28,0.0,0.0,36,0.00,,SCT055,0.00,VWS V14.01,2013-01-26 14:29:00,
2013-01-26 09:34:00,10.8,-10.9,29.62,West,272,0.0,0.0,36,0.00,,SCT055,0.00,VWS V14.01,2013-01-26 14:34:00,
2013-01-26 09:39:00,11.1,-10.6,29.62,NW,310,0.0,0.0,36,0.00,,SCT055,0.00,VWS V14.01,2013-01-26 14:39:00,
2013-01-26 09:44:00,11.5,-10.3,29.62,WNW,294,0.0,2.2,36,0.00,,SCT055,0.00,VWS V14.01,2013-01-26 14:44:00,
2013-01-26 09:50:00,11.7,-10.1,29.62,NNE,24,4.5,4.5,36,0.00,,SCT055,0.00,VWS V14.01,2013-01-26 14:50:00,
2013-01-26 09:55:00,12.0,-9.8,29.62,NNE,28,8.1,8.1,36,0.00,,SCT055,0.00,VWS V14.01,2013-01-26 14:55:00,
2013-01-26 10:00:00,12.2,-9.6,29.62,NW,326,5.4,5.4,36,0.00,,SCT055,0.00,VWS V14.01,2013-01-26 15:00:00,
2013-01-26 10:05:00,12.7,-9.2,29.62,North,357,7.2,7.2,36,0.00,,CLR,0.00,VWS V14.01,2013-01-26 15:05:00,
2013-01-26 10:10:00,13.3,-8.7,29.62,WNW,295,0.0,0.0,36,0.00,,CLR,0.00,VWS V14.01,2013-01-26 15:10:00,
2013-01-26 10:15:00,13.8,-8.2,29.62,NNW,341,4.5,4.5,36,0.00,,CLR,0.00,VWS V14.01,2013-01-26 15:15:00,
2013-01-26 10:20:00,14.4,-6.1,29.62,NNE,24,0.0,0.0,39,0.00,,CLR,0.00,VWS V14.01,2013-01-26 15:20:00,
2013-01-26 10:25:00,14.5,-5.9,29.62,NNW,328,7.2,7.2,39,0.00,,CLR,0.00,VWS V14.01,2013-01-26 15:25:00,
2013-01-26 10:30:00,14.7,-5.7,29.62,NNE,32,0.0,2.2,39,0.00,,CLR,0.00,VWS V14.01,2013-01-26 15:30:00,
2013-01-26 10:35:00,14.9,-6.1,29.62,East,91,8.1,8.1,38,0.00,,CLR,0.00,VWS V14.01,2013-01-26 15:35:00,
2013-01-26 10:40:00,14.9,-6.1,29.62,North,3,0.0,3.1,38,0.00,,CLR,0.00,VWS V14.01,2013-01-26 15:40:00,
2013-01-26 10:45:00,15.1,-5.9,29.62,WNW,302,0.0,2.7,38,0.00,,CLR,0.00,VWS V14.01,2013-01-26 15:45:00,
2013-01-26 10:51:00,15.3,-5.8,29.62,NW,321,0.0,2.7,38,0.00,,CLR,0.00,VWS V14.01,2013-01-26 15:51:00,
2013-01-26 10:56:00,15.4,-6.2,29.62,North,357,6.3,6.3,37,0.00,,CLR,0.00,VWS V14.01,2013-01-26 15:56:00,
2013-01-26 11:01:00,15.4,-6.2,29.62,NNE,17,0.0,0.0,37,0.00,,CLR,0.00,VWS V14.01,2013-01-26 16:01:00,
2013-01-26 11:06:00,15.6,-6.0,29.59,NW,307,0.0,2.7,37,0.00,,CLR,0.00,VWS V14.01,2013-01-26 16:06:00,
2013-01-26 11:11:00,16.0,-6.2,29.59,NW,326,7.2,7.2,36,0.00,,CLR,0.00,VWS V14.01,2013-01-26 16:11:00,
2013-01-26 11:16:00,16.0,-6.2,29.59,WNW,283,10.7,10.7,36,0.00,,CLR,0.00,VWS V14.01,2013-01-26 16:16:00,
2013-01-26 11:21:00,16.0,-6.2,29.59,NW,325,8.1,8.1,36,0.00,,CLR,0.00,VWS V14.01,2013-01-26 16:21:00,
2013-01-26 11:26:00,16.2,-6.1,29.59,NW,316,0.0,2.2,36,0.00,,CLR,0.00,VWS V14.01,2013-01-26 16:26:00,
2013-01-26 11:31:00,16.7,-5.6,29.59,WNW,290,6.3,6.3,36,0.00,,CLR,0.00,VWS V14.01,2013-01-26 16:31:00,
2013-01-26 11:36:00,16.9,-5.4,29.59,NNE,27,0.0,3.1,36,0.00,,CLR,0.00,VWS V14.01,2013-01-26 16:36:00,
2013-01-26 11:41:00,16.9,-5.4,29.59,WSW,239,5.4,5.4,36,0.00,,CLR,0.00,VWS V14.01,2013-01-26 16:41:00,
2013-01-26 11:47:00,16.9,-5.4,29.59,NW,318,5.4,5.4,36,0.00,,CLR,0.00,VWS V14.01,2013-01-26 16:47:00,
2013-01-26 11:52:00,16.9,-5.4,29.59,WNW,294,5.4,5.4,36,0.00,,CLR,0.00,VWS V14.01,2013-01-26 16:52:00,
2013-01-26 11:57:00,16.9,-5.4,29.59,NNE,33,5.4,5.4,36,0.00,,CLR,0.00,VWS V14.01,2013-01-26 16:57:00,
2013-01-26 12:02:00,17.1,-5.3,29.56,WNW,302,0.0,0.0,36,0.00,,CLR,0.00,VWS V14.01,2013-01-26 17:02:00,
2013-01-26 12:07:00,17.4,-5.0,29.56,NNW,345,4.5,4.5,36,0.00,,CLR,0.00,VWS V14.01,2013-01-26 17:07:00,
2013-01-26 12:12:00,17.4,-5.0,29.56,WNW,297,0.0,2.7,36,0.00,,CLR,0.00,VWS V14.01,2013-01-26 17:12:00,
2013-01-26 12:17:00,17.6,-4.8,29.56,West,275,0.0,0.0,36,0.00,,CLR,0.00,VWS V14.01,2013-01-26 17:17:00,
2013-01-26 12:22:00,18.0,-5.1,29.56,NNE,21,5.4,5.4,35,0.00,,CLR,0.00,VWS V14.01,2013-01-26 17:22:00,
2013-01-26 12:27:00,18.3,-4.7,29.56,WNW,301,0.0,4.9,35,0.00,,CLR,0.00,VWS V14.01,2013-01-26 17:27:00,
2013-01-26 12:33:00,18.7,-4.4,29.56,WNW,292,0.0,4.0,35,0.00,,CLR,0.00,VWS V14.01,2013-01-26 17:33:00,
2013-01-26 12:38:00,19.4,-3.8,29.56,North,353,0.0,0.0,35,0.00,,CLR,0.00,VWS V14.01,2013-01-26 17:38:00,
2013-01-26 12:43:00,19.6,-4.2,29.56,North,0,0.0,3.6,34,0.00,,CLR,0.00,VWS V14.01,2013-01-26 17:43:00,
2013-01-26 12:48:00,19.8,-4.1,29.56,NE,37,6.3,6.3,34,0.00,,CLR,0.00,VWS V14.01,2013-01-26 17:48:00,
2013-01-26 12:53:00,19.8,-4.1,29.56,WNW,297,5.4,5.4,34,0.00,,CLR,0.00,VWS V14.01,2013-01-26 17:53:00,
2013-01-26 12:58:00,19.9,-3.9,29.56,NNW,344,0.0,0.0,34,0.00,,CLR,0.00,VWS V14.01,2013-01-26 17:58:00,
2013-01-26 13:03:00,20.1,-3.7,29.56,NNW,344,6.3,6.3,34,0.00,,CLR,0.00,VWS V14.01,2013-01-26 18:03:00,
2013-01-26 13:08:00,20.1,-3.7,29.56,NW,313,5.4,5.4,34,0.00,,CLR,0.00,VWS V14.01,2013-01-26 18:08:00,
2013-01-26 13:13:00,19.9,-3.9,29.56,NE,44,7.2,7.2,34,0.00,,CLR,0.00,VWS V14.01,2013-01-26 18:13:00,
2013-01-26 13:18:00,19.9,-3.9,29.56,North,353,0.0,0.0,34,0.00,,CLR,0.00,VWS V14.01,2013-01-26 18:18:00,
2013-01-26 13:23:00,19.9,-3.9,29.56,NNW,346,4.5,5.4,34,0.00,,CLR,0.00,VWS V14.01,2013-01-26 18:23:00,
2013-01-26 13:29:00,20.1,-3.7,29.56,North,357,0.0,3.1,34,0.00,,CLR,0.00,VWS V14.01,2013-01-26 18:29:00,
2013-01-26 13:34:00,20.3,-3.6,29.56,North,353,5.4,5.4,34,0.00,,CLR,0.00,VWS V14.01,2013-01-26 18:34:00,
2013-01-26 13:39:00,20.3,-3.6,29.56,NW,315,0.0,3.6,34,0.00,,CLR,0.00,VWS V14.01,2013-01-26 18:39:00,
2013-01-26 13:44:00,20.5,-3.4,29.56,NNE,22,0.0,0.0,34,0.00,,CLR,0.00,VWS V14.01,2013-01-26 18:44:00,
2013-01-26 13:49:00,20.7,-3.9,29.53,NNW,330,5.4,5.4,33,0.00,,CLR,0.00,VWS V14.01,2013-01-26 18:49:00,
2013-01-26 13:54:00,20.5,-4.0,29.53,North,357,6.3,6.3,33,0.00,,CLR,0.00,VWS V14.01,2013-01-26 18:54:00,
2013-01-26 13:59:00,20.5,-4.0,29.53,NNW,329,0.0,2.2,33,0.00,,CLR,0.00,VWS V14.01,2013-01-26 18:59:00,
2013-01-26 14:04:00,20.3,-4.2,29.56,NNE,28,4.5,4.5,33,0.00,,CLR,0.00,VWS V14.01,2013-01-26 19:04:00,
2013-01-26 14:09:00,20.1,-4.4,29.56,NW,305,5.4,5.4,33,0.00,,CLR,0.00,VWS V14.01,2013-01-26 19:09:00,
2013-01-26 14:14:00,19.9,-4.5,29.56,North,357,6.3,6.3,33,0.00,,CLR,0.00,VWS V14.01,2013-01-26 19:14:00,
2013-01-26 14:20:00,20.1,-4.4,29.56,WNW,299,7.2,7.2,33,0.00,,CLR,0.00,VWS V14.01,2013-01-26 19:20:00,
2013-01-26 14:25:00,20.3,-4.2,29.56,North,10,0.0,2.2,33,0.00,,CLR,0.00,VWS V14.01,2013-01-26 19:25:00,
2013-01-26 14:30:00,20.5,-4.0,29.56,NNW,330,0.0,0.0,33,0.00,,CLR,0.00,VWS V14.01,2013-01-26 19:30:00,
2013-01-26 14:35:00,20.7,-3.9,29.56,North,353,0.0,3.1,33,0.00,,CLR,0.00,VWS V14.01,2013-01-26 19:35:00,
2013-01-26 14:40:00,20.7,-3.9,29.56,NE,54,7.2,7.2,33,0.00,,CLR,0.00,VWS V14.01,2013-01-26 19:40:00,
2013-01-26 14:45:00,20.3,-4.2,29.56,North,2,0.0,0.0,33,0.00,,CLR,0.00,VWS V14.01,2013-01-26 19:45:00,
2013-01-26 14:50:00,20.5,-4.0,29.56,NNE,18,4.5,4.5,33,0.00,,CLR,0.00,VWS V14.01,2013-01-26 19:50:00,
2013-01-26 14:55:00,20.7,-3.9,29.56,NE,47,5.4,5.4,33,0.00,,CLR,0.00,VWS V14.01,2013-01-26 19:55:00,
2013-01-26 15:00:00,20.7,-3.9,29.56,NNW,345,0.0,0.0,33,0.00,,CLR,0.00,VWS V14.01,2013-01-26 20:00:00,
2013-01-26 15:06:00,20.8,-3.7,29.56,NW,311,7.2,7.2,33,0.00,,CLR,0.00,VWS V14.01,2013-01-26 20:06:00,
2013-01-26 15:11:00,20.8,-3.7,29.56,NW,322,0.0,0.0,33,0.00,,CLR,0.00,VWS V14.01,2013-01-26 20:11:00,
2013-01-26 15:16:00,20.8,-3.7,29.56,WNW,296,4.5,4.5,33,0.00,,CLR,0.00,VWS V14.01,2013-01-26 20:16:00,
2013-01-26 15:21:00,21.2,-3.4,29.56,NW,310,6.3,6.3,33,0.00,,CLR,0.00,VWS V14.01,2013-01-26 20:21:00,
2013-01-26 15:26:00,21.2,-3.4,29.56,West,271,4.5,4.5,33,0.00,,CLR,0.00,VWS V14.01,2013-01-26 20:26:00,
2013-01-26 15:31:00,21.2,-3.4,29.56,North,349,0.0,0.0,33,0.00,,CLR,0.00,VWS V14.01,2013-01-26 20:31:00,
2013-01-26 15:36:00,21.2,-3.4,29.56,NW,311,4.5,4.5,33,0.00,,CLR,0.00,VWS V14.01,2013-01-26 20:36:00,
2013-01-26 15:41:00,21.0,-3.6,29.56,NNW,337,0.0,2.2,33,0.00,,CLR,0.00,VWS V14.01,2013-01-26 20:41:00,
2013-01-26 15:46:00,20.7,-3.9,29.56,NW,325,8.9,8.9,33,0.00,,CLR,0.00,VWS V14.01,2013-01-26 20:46:00,
2013-01-26 15:51:00,20.3,-4.2,29.59,NW,321,5.4,5.4,33,0.00,,CLR,0.00,VWS V14.01,2013-01-26 20:51:00,
2013-01-26 15:56:00,19.9,-4.5,29.59,NNW,327,0.0,2.7,33,0.00,,CLR,0.00,VWS V14.01,2013-01-26 20:56:00,
2013-01-26 16:02:00,19.6,-4.8,29.59,NE,36,0.0,3.6,33,0.00,,CLR,0.00,VWS V14.01,2013-01-26 21:02:00,
2013-01-26 16:07:00,19.4,-5.0,29.59,NW,310,0.0,0.0,33,0.00,,CLR,0.00,VWS V14.01,2013-01-26 21:07:00,
2013-01-26 16:12:00,19.2,-5.2,29.59,West,268,6.3,6.3,33,0.00,,CLR,0.00,VWS V14.01,2013-01-26 21:12:00,
2013-01-26 16:17:00,19.2,-5.2,29.59,NNW,330,0.0,0.0,33,0.00,,CLR,0.00,VWS V14.01,2013-01-26 21:17:00,
2013-01-26 16:22:00,19.0,-5.3,29.59,West,275,0.0,0.0,33,0.00,,CLR,0.00,VWS V14.01,2013-01-26 21:22:00,
2013-01-26 16:27:00,19.0,-5.3,29.59,West,275,0.0,0.0,33,0.00,,CLR,0.00,VWS V14.01,2013-01-26 21:27:00,
2013-01-26 16:32:00,18.7,-5.6,29.59,West,262,0.0,0.0,33,0.00,,CLR,0.00,VWS V14.01,2013-01-26 21:32:00,
2013-01-26 16:37:00,18.7,-5.6,29.59,NW,315,0.0,0.0,33,0.00,,CLR,0.00,VWS V14.01,2013-01-26 21:37:00,
2013-01-26 16:42:00,18.5,-5.8,29.59,North,353,0.0,3.1,33,0.00,,CLR,0.00,VWS V14.01,2013-01-26 21:42:00,
2013-01-26 16:47:00,18.5,-5.8,29.59,NW,313,0.0,4.0,33,0.00,,CLR,0.00,VWS V14.01,2013-01-26 21:47:00,
2013-01-26 16:53:00,18.5,-5.8,29.59,WNW,302,0.0,2.7,33,0.00,,CLR,0.00,VWS V14.01,2013-01-26 21:53:00,
2013-01-26 16:58:00,18.3,-6.0,29.59,WNW,286,4.5,4.5,33,0.00,,CLR,0.00,VWS V14.01,2013-01-26 21:58:00,
2013-01-26 17:03:00,18.3,-6.0,29.59,NNW,334,0.0,0.0,33,0.00,,CLR,0.00,VWS V14.01,2013-01-26 22:03:00,
2013-01-26 17:08:00,18.0,-6.3,29.59,West,264,10.7,10.7,33,0.00,,CLR,0.00,VWS V14.01,2013-01-26 22:08:00,
2013-01-26 17:13:00,17.8,-6.4,29.59,NW,304,0.0,0.0,33,0.00,,CLR,0.00,VWS V14.01,2013-01-26 22:13:00,
2013-01-26 17:18:00,17.6,-6.0,29.59,NE,48,4.5,4.5,34,0.00,,CLR,0.00,VWS V14.01,2013-01-26 22:18:00,
2013-01-26 17:23:00,17.4,-6.1,29.59,WNW,302,0.0,0.0,34,0.00,,CLR,0.00,VWS V14.01,2013-01-26 22:23:00,
2013-01-26 17:28:00,17.2,-6.3,29.59,NW,308,7.2,7.2,34,0.00,,CLR,0.00,VWS V14.01,2013-01-26 22:28:00,
2013-01-26 17:33:00,16.9,-6.6,29.62,WNW,294,5.4,5.4,34,0.00,,CLR,0.00,VWS V14.01,2013-01-26 22:33:00,
2013-01-26 17:38:00,16.7,-6.8,29.62,NNW,327,0.0,0.0,34,0.00,,CLR,0.00,VWS V14.01,2013-01-26 22:38:00,
2013-01-26 17:43:00,16.5,-6.9,29.62,NW,319,0.0,0.0,34,0.00,,CLR,0.00,VWS V14.01,2013-01-26 22:43:00,
2013-01-26 17:48:00,16.3,-7.1,29.62,WNW,292,4.5,4.5,34,0.00,,CLR,0.00,VWS V14.01,2013-01-26 22:48:00,
2013-01-26 17:54:00,16.2,-7.3,29.62,WNW,298,8.1,8.1,34,0.00,,CLR,0.00,VWS V14.01,2013-01-26 22:54:00,
2013-01-26 17:59:00,16.0,-7.4,29.62,WNW,282,7.2,7.2,34,0.00,,CLR,0.00,VWS V14.01,2013-01-26 22:59:00,
2013-01-26 18:04:00,15.8,-7.6,29.62,North,357,0.0,2.2,34,0.00,,FEW120,0.00,VWS V14.01,2013-01-26 23:04:00,
2013-01-26 18:09:00,15.4,-7.9,29.62,NNE,32,8.1,8.1,34,0.00,,FEW120,0.00,VWS V14.01,2013-01-26 23:09:00,
2013-01-26 18:14:00,15.3,-8.1,29.62,North,9,5.4,5.4,34,0.00,,FEW120,0.00,VWS V14.01,2013-01-26 23:14:00,
2013-01-26 18:19:00,15.1,-8.2,29.62,WNW,299,4.5,4.5,34,0.00,,FEW120,0.00,VWS V14.01,2013-01-26 23:19:00,
2013-01-26 18:24:00,14.9,-8.4,29.62,West,270,10.7,10.7,34,0.00,,FEW120,0.00,VWS V14.01,2013-01-26 23:24:00,
2013-01-26 18:29:00,14.7,-8.6,29.62,NNW,337,6.3,6.3,34,0.00,,FEW120,0.00,VWS V14.01,2013-01-26 23:29:00,
2013-01-26 18:34:00,14.5,-8.7,29.62,North,353,0.0,0.0,34,0.00,,FEW120,0.00,VWS V14.01,2013-01-26 23:34:00,
2013-01-26 18:39:00,14.4,-8.9,29.62,West,271,5.4,5.4,34,0.00,,FEW120,0.00,VWS V14.01,2013-01-26 23:39:00,
2013-01-26 18:44:00,14.4,-8.9,29.62,West,267,5.4,5.4,34,0.00,,FEW120,0.00,VWS V14.01,2013-01-26 23:44:00,
2013-01-26 18:50:00,14.4,-8.9,29.62,WNW,302,5.4,5.4,34,0.00,,FEW120,0.00,VWS V14.01,2013-01-26 23:50:00,
2013-01-26 18:55:00,14.2,-9.0,29.62,NW,313,5.4,5.4,34,0.00,,FEW120,0.00,VWS V14.01,2013-01-26 23:55:00,
2013-01-26 19:00:00,14.2,-9.0,29.62,NW,312,16.6,16.6,34,0.00,,FEW120,0.00,VWS V14.01,2013-01-27 00:00:00,
2013-01-26 19:05:00,14.0,-9.2,29.65,West,259,11.6,11.6,34,0.00,,OVC100,0.00,VWS V14.01,2013-01-27 00:05:00,
2013-01-26 19:10:00,13.8,-9.4,29.65,WSW,250,10.7,10.7,34,0.00,,OVC100,0.00,VWS V14.01,2013-01-27 00:10:00,
2013-01-26 19:15:00,13.6,-9.5,29.65,WNW,293,9.8,9.8,34,0.00,,OVC100,0.00,VWS V14.01,2013-01-27 00:15:00,
2013-01-26 19:20:00,13.6,-9.5,29.65,NW,306,8.1,8.1,34,0.00,,OVC100,0.00,VWS V14.01,2013-01-27 00:20:00,
2013-01-26 19:25:00,13.5,-9.7,29.65,NNW,332,0.0,2.7,34,0.00,,OVC100,0.00,VWS V14.01,2013-01-27 00:25:00,
2013-01-26 19:30:00,13.5,-9.7,29.65,NW,308,4.5,4.5,34,0.00,,OVC100,0.00,VWS V14.01,2013-01-27 00:30:00,
2013-01-26 19:35:00,13.3,-9.8,29.65,WSW,254,10.7,10.7,34,0.00,,OVC100,0.00,VWS V14.01,2013-01-27 00:35:00,
2013-01-26 19:40:00,13.3,-9.8,29.65,West,272,8.1,8.1,34,0.00,,OVC100,0.00,VWS V14.01,2013-01-27 00:40:00,
2013-01-26 19:46:00,13.3,-9.8,29.65,WSW,257,6.3,6.3,34,0.00,,OVC100,0.00,VWS V14.01,2013-01-27 00:46:00,
2013-01-26 19:51:00,13.1,-10.0,29.65,WNW,284,5.4,5.4,34,0.00,,OVC100,0.00,VWS V14.01,2013-01-27 00:51:00,
2013-01-26 19:56:00,13.1,-10.0,29.65,NW,316,0.0,2.2,34,0.00,,OVC100,0.00,VWS V14.01,2013-01-27 00:56:00,
2013-01-26 20:01:00,12.9,-10.1,29.65,WNW,303,5.4,5.4,34,0.00,,OVC100,0.00,VWS V14.01,2013-01-27 01:01:00,
2013-01-26 20:06:00,12.9,-10.1,29.65,NW,305,0.0,2.7,34,0.00,,OVC100,0.00,VWS V14.01,2013-01-27 01:06:00,
2013-01-26 20:11:00,12.9,-10.1,29.65,NW,314,6.3,6.3,34,0.00,,OVC100,0.00,VWS V14.01,2013-01-27 01:11:00,
2013-01-26 20:16:00,12.9,-10.1,29.65,West,266,6.3,6.3,34,0.00,,OVC100,0.00,VWS V14.01,2013-01-27 01:16:00,
2013-01-26 20:21:00,12.7,-10.3,29.65,NW,307,4.5,4.5,34,0.00,,OVC100,0.00,VWS V14.01,2013-01-27 01:21:00,
2013-01-26 20:26:00,12.7,-10.3,29.65,WNW,300,0.0,2.7,34,0.00,,OVC100,0.00,VWS V14.01,2013-01-27 01:26:00,
2013-01-26 20:31:00,12.7,-10.3,29.65,WSW,258,6.3,6.3,34,0.00,,OVC100,0.00,VWS V14.01,2013-01-27 01:31:00,
2013-01-26 20:37:00,12.6,-10.5,29.65,SSW,210,6.3,6.3,34,0.00,,OVC100,0.00,VWS V14.01,2013-01-27 01:37:00,
2013-01-26 20:42:00,12.6,-10.5,29.65,WNW,301,5.4,5.4,34,0.00,,OVC100,0.00,VWS V14.01,2013-01-27 01:42:00,
2013-01-26 20:47:00,12.4,-10.6,29.65,WSW,252,6.3,6.3,34,0.00,,OVC100,0.00,VWS V14.01,2013-01-27 01:47:00,
2013-01-26 20:52:00,12.4,-10.6,29.65,West,272,7.2,7.2,34,0.00,,OVC100,0.00,VWS V14.01,2013-01-27 01:52:00,
2013-01-26 20:57:00,12.2,-10.8,29.65,West,261,9.8,9.8,34,0.00,,OVC100,0.00,VWS V14.01,2013-01-27 01:57:00,
2013-01-26 21:02:00,12.2,-10.8,29.65,WSW,249,8.1,8.1,34,0.00,,BKN100,0.00,VWS V14.01,2013-01-27 02:02:00,
2013-01-26 21:07:00,12.2,-10.8,29.65,NW,320,8.1,8.1,34,0.00,,BKN100,0.00,VWS V14.01,2013-01-27 02:07:00,
2013-01-26 21:12:00,12.0,-11.0,29.65,North,0,0.0,0.0,34,0.00,,BKN100,0.00,VWS V14.01,2013-01-27 02:12:00,
2013-01-26 21:17:00,12.0,-11.0,29.65,NNW,331,0.0,0.0,34,0.00,,BKN100,0.00,VWS V14.01,2013-01-27 02:17:00,
2013-01-26 21:22:00,12.0,-11.0,29.65,West,267,8.1,8.1,34,0.00,,BKN100,0.00,VWS V14.01,2013-01-27 02:22:00,
2013-01-26 21:27:00,12.0,-11.0,29.65,NW,323,0.0,2.2,34,0.00,,BKN100,0.00,VWS V14.01,2013-01-27 02:27:00,
2013-01-26 21:32:00,12.0,-11.0,29.65,WNW,293,8.1,8.1,34,0.00,,BKN100,0.00,VWS V14.01,2013-01-27 02:32:00,
2013-01-26 21:38:00,12.0,-11.0,29.65,West,263,4.5,4.5,34,0.00,,BKN100,0.00,VWS V14.01,2013-01-27 02:38:00,
2013-01-26 21:43:00,12.0,-11.0,29.65,NNW,343,0.0,3.6,34,0.00,,BKN100,0.00,VWS V14.01,2013-01-27 02:43:00,
2013-01-26 21:48:00,12.0,-11.0,29.65,WNW,300,0.0,0.0,34,0.00,,BKN100,0.00,VWS V14.01,2013-01-27 02:48:00,
2013-01-26 21:53:00,11.8,-11.1,29.65,NW,307,0.0,0.0,34,0.00,,BKN100,0.00,VWS V14.01,2013-01-27 02:53:00,
2013-01-26 21:58:00,11.8,-11.1,29.65,NNW,337,0.0,0.0,34,0.00,,BKN100,0.00,VWS V14.01,2013-01-27 02:58:00,
2013-01-26 22:03:00,11.8,-11.1,29.65,North,10,0.0,0.0,34,0.00,,OVC100,0.00,VWS V14.01,2013-01-27 03:03:00,
2013-01-26 22:08:00,11.8,-11.1,29.65,NNW,333,0.0,0.0,34,0.00,,OVC100,0.00,VWS V14.01,2013-01-27 03:08:00,
2013-01-26 22:13:00,11.7,-11.3,29.65,WNW,301,0.0,0.0,34,0.00,,OVC100,0.00,VWS V14.01,2013-01-27 03:13:00,
2013-01-26 22:18:00,11.7,-11.3,29.68,WNW,298,4.5,4.5,34,0.00,,OVC100,0.00,VWS V14.01,2013-01-27 03:18:00,
2013-01-26 22:23:00,11.7,-11.3,29.68,WNW,296,0.0,0.0,34,0.00,,OVC100,0.00,VWS V14.01,2013-01-27 03:23:00,
2013-01-26 22:28:00,11.5,-11.4,29.68,NW,310,0.0,2.7,34,0.00,,OVC100,0.00,VWS V14.01,2013-01-27 03:28:00,
2013-01-26 22:34:00,11.5,-11.4,29.65,WNW,295,7.2,7.2,34,0.00,,OVC100,0.00,VWS V14.01,2013-01-27 03:34:00,
2013-01-26 22:39:00,11.3,-11.6,29.65,West,280,5.4,5.4,34,0.00,,OVC100,0.00,VWS V14.01,2013-01-27 03:39:00,
2013-01-26 22:44:00,11.3,-11.6,29.65,WSW,237,0.0,2.7,34,0.00,,OVC100,0.00,VWS V14.01,2013-01-27 03:44:00,
2013-01-26 22:49:00,11.3,-11.6,29.65,SW,227,10.7,10.7,34,0.00,,OVC100,0.00,VWS V14.01,2013-01-27 03:49:00,
2013-01-26 22:54:00,11.5,-11.4,29.65,NW,318,0.0,3.1,34,0.00,,OVC100,0.00,VWS V14.01,2013-01-27 03:54:00,
2013-01-26 22:59:00,11.3,-11.6,29.65,WNW,297,4.5,4.5,34,0.00,,OVC100,0.00,VWS V14.01,2013-01-27 03:59:00,
2013-01-26 23:04:00,11.3,-11.6,29.68,West,279,5.4,5.4,34,0.00,,FEW100,0.00,VWS V14.01,2013-01-27 04:04:00,
2013-01-26 23:09:00,11.5,-11.4,29.68,NW,325,0.0,0.0,34,0.00,,FEW100,0.00,VWS V14.01,2013-01-27 04:09:00,
2013-01-26 23:14:00,11.5,-11.4,29.68,West,271,6.3,6.3,34,0.00,,FEW100,0.00,VWS V14.01,2013-01-27 04:14:00,
2013-01-26 23:19:00,11.5,-11.4,29.68,West,274,0.0,2.2,34,0.00,,FEW100,0.00,VWS V14.01,2013-01-27 04:19:00,
2013-01-26 23:24:00,11.3,-11.6,29.68,West,277,0.0,0.0,34,0.00,,FEW100,0.00,VWS V14.01,2013-01-27 04:24:00,
2013-01-26 23:29:00,11.3,-11.6,29.68,West,269,5.4,5.4,34,0.00,,FEW100,0.00,VWS V14.01,2013-01-27 04:29:00,
2013-01-26 23:35:00,11.3,-11.6,29.68,West,278,0.0,0.0,34,0.00,,FEW100,0.00,VWS V14.01,2013-01-27 04:35:00,
2013-01-26 23:40:00,11.3,-11.6,29.68,West,260,5.4,5.4,34,0.00,,FEW100,0.00,VWS V14.01,2013-01-27 04:40:00,
2013-01-26 23:45:00,11.3,-11.6,29.68,WNW,291,7.2,7.2,34,0.00,,FEW100,0.00,VWS V14.01,2013-01-27 04:45:00,
2013-01-26 23:50:00,11.3,-11.6,29.68,WSW,248,0.0,0.0,34,0.00,,FEW100,0.00,VWS V14.01,2013-01-27 04:50:00,
2013-01-26 23:55:00,11.3,-11.6,29.68,West,278,0.0,2.2,34,0.00,,FEW100,0.00,VWS V14.01,2013-01-27 04:55:00,